DELTA 1 DEB, 14493

Orbit data source: Space-Track

DELTA 1 DEB, 14493 is space debris in LEO originally from a launch on Thu, 14 Jul 1977 UTC launched from the Air Force Eastern Test Range (AFETR). Debris objects in space refer to the collection of defunct objects orbiting the Earth. Examples of debris include non-operational satellites, rocket bodies, and fragments generated from explosions, collisions, or faulty payload assembly.

Loading next visibility...
Identifier
14493, 1977-065FJ
Orbit
LEO
Country
Flag of USUS
Related business
Manufacturer
Unknown
Mission
Spacecraft
Bus & Motor
Unknown
Mass
Unknown
Launch date (UTC)
1977-07-14 (49 years ago)
Launch vehicle
Unknown
Launch site
Air Force Eastern Test Range (AFETR)
Object type
Payload
Rocket body
Debris
Shape & HBR
Unknown shape, 0.1 m
Radar Cross Section
Medium (>0.1 m² and <1 m²)

Expand to show TLE details & history
Last TLE update: 2 days ago

TLE from 2 days ago
0 DELTA 1 DEB
1 14493U 77065FJ  26171.24921030  .00002388  00000-0  43350-3 0  9993
2 14493  28.9453 191.9299 0557515 359.1289   0.8295 13.95207148232707
Epoch: 2026-06-20T05:58Z
TLE epoch observation values (Epoch: 2026-06-20T05:58:51.769Z)
Latitude
-0.00004°
Longitude
-166.25242°
Altitude
502.639 km
Speed
7.824 km/s
True Right ascension
12h 47m 43s
True Declination
0° 00' 00"
Sunlit
Object was in daylight at epoch
Visualization orbit readout
Latitude
Unknown
Longitude
Unknown
Altitude
Unknown
Speed
Unknown
Apparent Right ascension
Unknown
Apparent Declination
Unknown
Sunlit
N/A
Visualization observer readout
Local Sidereal Time
04:00:17
Azimuth
Unknown
Elevation
Unknown
Doppler factor
Unknown
Orbital elements
Apogee altitude
1,320.952 km
Perigee altitude
507.814 km
Semi-major axis
7,292.52 km
Eccentricity
0.05575
Inclination
28.9453°
RAAN
191.9299°
Arg. of periapsis
359.1289°
True anomaly
0.92889°
Mean anomaly
0.8295°
Eccentric anomaly
0.87847°
Mean motion
3.48519 °/min
Orbital period
103.29 mins
BSTAR
0.0004335
Loading maneuver chart data...
Computing Atmospheric mass density...

Documentation

Showing up to 5 results
|